Regional Weather Roundup
Issued by NWS Cleveland, OH

Home | Current Version | Previous Version | Text Only | Print | Product List | Glossary Off
Versions: 1 2 3 4 5 6 7 8 9 10 11 12 13 14 15 16 17 18 19 20 21 22 23 24 25 26 27 28 29 30 31 32 33 34 35 36 37 38 39 40 41 42 43 44 45 46 47 48 49 50

000
ASUS41 KCLE 171910
RWRCLE
OHIO REGIONAL WEATHER ROUNDUP
NATIONAL WEATHER SERVICE CLEVELAND, OH
200 PM EST WED DEC 17 2014

NOTE: "FAIR" INDICATES FEW OR NO CLOUDS BELOW 12,000 FEET WITH NO
SIGNIFICANT WEATHER AND/OR OBSTRUCTIONS TO VISIBILITY.

OHZ001>008-015>018-024>027-034-035-043-044-172000-
   NORTHWEST OHIO

CITY           SKY/WX    TMP DP  RH WIND       PRES   REMARKS
DEFIANCE       NOT AVBL
FINDLAY        CLOUDY    31  25  78 SW16      30.12F WCI  20
TOLEDO EXPRESS CLOUDY    30  21  69 W14       30.12S WCI  19
TOLEDO EXEC    CLOUDY    31  22  69 W21       30.12S WCI  18
LIMA             N/A     32  24  72 W15       30.14F WCI  22
$$

OHZ009>014-019>023-028>033-038-089-172000-
   NORTHEAST OHIO

CITY           SKY/WX    TMP DP  RH WIND       PRES   REMARKS
CLE-HOPKINS    CLOUDY    32  24  72 W15       30.11R WCI  22
CLE-LAKEFRONT  CLOUDY    33  25  72 W24       30.08R WCI  20
CUY CO. ARPT   CLOUDY    36  27  69 W16G30    30.07R
LORAIN-ELYRIA  CLOUDY    31  23  72 W14G26    30.10S WCI  21
ASHTABULA      CLOUDY    32  25  75 W14G24    30.04S WCI  22
AKRON-CANTON   CLOUDY    32  24  72 W13G25    30.06F WCI  22
WOOSTER        CLOUDY    31  25  78 W13       30.09S WCI  21
MANSFIELD      CLOUDY    30  24  78 W10G22    30.09S WCI  21
YOUNGSTOWN     CLOUDY    32  23  69 W16G24    30.03S WCI  21
$$

OHZ042-051>053-060>062-070>072-077>081-172000-
  SOUTHWEST OHIO

CITY           SKY/WX    TMP DP  RH WIND       PRES   REMARKS
CINC-COVINGTON CLOUDY    32  23  69 W10       30.20F WCI  24
CINC-LUNKEN    CLOUDY    32  25  75 W9        30.23F WCI  24
HAMILTON       CLOUDY    31  25  78 W9        30.22F WCI  23
DAYTON         CLOUDY    29  23  78 W16       30.18F WCI  17
WRIGHT-PAT AFB CLOUDY    30  25  81 SW9       30.18F WCI  21
DAYTON GENERAL CLOUDY    30  24  78 W10       30.18F WCI  21
WILMINGTON     CLOUDY    30  23  75 W12       30.17F WCI  20
$$

OHZ036-037-039>041-045>050-054>059-063>069-073>076-082>088-172000-
  CENTRAL AND SOUTHEAST OHIO

CITY           SKY/WX    TMP DP  RH WIND       PRES   REMARKS
COLUMBUS       CLOUDY    31  25  78 W13       30.16S WCI  21
OSU AIRPORT    CLOUDY    31  24  75 W13       30.15F WCI  21
BOLTON FIELD   CLOUDY    30  25  80 W10       30.17S WCI  21
RICKENBACK AFB CLOUDY    32  25  76 W13G20    30.17S WCI  22
NEWARK         CLOUDY    33  25  72 W15       30.14F WCI  23
MARION         CLOUDY    30  23  75 W12G21    30.13F WCI  20
LANCASTER      CLOUDY    32  25  75 W12       30.17S WCI  23
ZANESVILLE     CLOUDY    31  23  72 W12G20    30.14S WCI  22
NEW PHILLY     CLOUDY    34  24  67 W12       30.11S WCI  25
$$



USA.gov is the U.S. government's official web portal to all federal, state and local government web resources and services.